EW6685 Weather Reports


time (UTC)temp
C
wind
direction
speed
KPH
gust
KPH
rain 1hr
cm
rain 24hr
cm
rain mn
cm
humidity
%
barometer
mb
20260510184502 17 360 8.0 16.1 0.00 0.00 0.00 28 1008.6
20260510183000 17 360 9.7 29.0 0.00 0.00 0.00 27 1008.7
20260510104603 12 360 11.3 19.3 0.00 0.00 0.00 31 1006.2
20260510103047 12 360 6.4 20.9 0.00 0.00 0.00 30 1005.8
20260510101544 12 37 12.9 24.1 0.00 0.00 0.00 29 1005.6
20260510100041 12 30 11.3 20.9 0.00 0.00 0.00 27 1005.8
20260510093036 13 58 1.6 6.4 0.00 0.00 0.00 27 1005.3
20260510091548 13 55 1.6 6.4 0.00 0.00 0.00 27 1004.8
20260510090026 14 27 4.8 8.0 0.00 0.00 0.00 26 1004.3
20260510084526 14 297 1.6 8.0 0.00 0.00 0.00 26 1004.2
20260510083021 14 298 3.2 14.5 0.00 0.00 0.00 26 1004.0
20260510081532 14 182 1.6 9.7 0.00 0.00 0.00 25 1003.9
20260510080018 15 217 3.2 14.5 0.00 0.00 0.00 25 1003.9
20260510061515 15 182 0.0 6.4 0.00 0.00 0.00 23 1003.8
20260510060023 16 218 0.0 9.7 0.00 0.00 0.00 22 1003.8
20260510054506 16 178 1.6 14.5 0.00 0.00 0.00 22 1003.7
20260510053008 16 321 8.0 19.3 0.00 0.00 0.00 21 1003.6
20260510051506 16 316 1.6 12.9 0.00 0.00 0.00 21 1003.6
20260510050006 16 360 1.6 12.9 0.00 0.00 0.00 21 1003.6
20260510044508 16 301 4.8 17.7 0.00 0.00 0.00 20 1003.8
20260510043004 16 329 6.4 19.3 0.00 0.00 0.00 19 1003.8
20260510041504 17 211 3.2 14.5 0.00 0.00 0.00 18 1003.7
20260510040003 17 274 8.0 16.1 0.00 0.00 0.00 18 1003.6
20260510034528 17 9 3.2 12.9 0.00 0.00 0.00 16 1003.6
20260510033002 17 212 6.4 17.7 0.00 0.00 0.00 15 1003.4
20260510031502 18 360 8.0 22.5 0.00 0.00 0.00 14 1003.0
20260510030001 18 196 6.4 19.3 0.00 0.00 0.00 15 1002.8
20260510024600 18 261 9.7 25.7 0.00 0.00 0.00 15 1002.5
20260510023100 18 214 11.3 24.1 0.00 0.00 0.00 15 1002.2
20260510021558 18 205 11.3 22.5 0.00 0.00 0.00 15 1002.1
20260510020059 18 215 16.1 32.2 0.00 0.00 0.00 14 1001.9
20260510014600 19 360 20.9 43.5 0.00 0.00 0.00 13 1001.5
20260510013103 20 184 12.9 29.0 0.00 0.00 0.00 13 1001.5
20260510011557 20 203 20.9 32.2 0.00 0.00 0.00 13 1001.3
20260510010056 20 182 20.9 33.8 0.00 0.00 0.00 13 1001.3
20260510004556 20 213 16.1 33.8 0.00 0.00 0.00 13 1001.3
20260510003100 20 192 22.5 33.8 0.00 0.00 0.00 13 1001.0
20260509223039 21 360 14.5 35.4 0.00 0.00 0.00 13 1001.2
20260509221540 21 360 24.1 37.0 0.00 0.00 0.00 13 1001.3